Date,TemperatureHighF,TemperatureAvgF,TemperatureLowF,DewpointHighF,DewpointAvgF,DewpointLowF,HumidityHigh,HumidityAvg,HumidityLow,PressureMaxIn,PressureMinIn,WindSpeedMaxMPH,WindSpeedAvgMPH,GustSpeedMaxMPH,PrecipitationSumIn
2014-1-1,53.4,36.2,24.1,32.4,21.9,14.7,70,57,40,30.35,30.07,13,2,13,0.00
2014-1-2,36.3,29.9,26.8,25.5,22.6,18.3,85,75,56,30.08,29.63,5,0,5,0.00
2014-1-3,28.2,17.4,7.9,24.3,5.3,-1.8,86,59,46,30.40,29.67,21,4,21,0.00
2014-1-4,38.3,23.9,7.7,17.7,9.8,-1.5,69,55,42,30.40,30.20,18,5,18,0.00
2014-1-5,45.0,34.6,25.5,41.6,27.5,14.3,88,76,53,30.21,29.65,17,1,17,0.41
2014-1-6,48.2,30.5,4.1,43.7,18.1,-12.0,88,61,43,30.06,29.51,25,8,25,0.02
2014-1-7,21.4,9.0,0.7,-0.9,-8.1,-14.8,53,45,36,30.36,30.05,18,2,20,0.00
2014-1-8,33.8,21.0,7.9,14.3,5.0,-4.8,63,50,42,30.49,30.35,16,2,17,0.00
2014-1-9,38.5,28.0,19.4,21.0,15.6,9.5,68,60,48,30.56,30.40,1,0,2,0.00
2014-1-10,40.8,35.4,30.2,36.7,29.3,19.3,85,79,62,30.44,30.09,7,0,7,0.28
2014-1-11,53.8,46.9,36.3,50.9,42.5,32.2,90,85,63,30.09,29.46,20,5,20,0.34
2014-1-12,52.3,41.2,30.7,34.1,28.3,22.3,74,61,44,30.09,29.65,23,2,23,0.00
2014-1-13,56.8,42.1,28.2,37.2,30.4,22.2,81,65,44,30.07,29.85,22,5,23,0.00
2014-1-14,49.1,42.1,29.1,44.0,35.7,24.6,85,78,62,29.92,29.72,19,2,20,0.14
2014-1-15,49.3,33.6,26.4,39.1,28.3,22.2,87,81,64,29.97,29.85,12,1,12,0.02
2014-1-16,38.8,29.3,17.4,28.1,22.0,13.9,87,75,56,30.01,29.86,12,0,12,0.04
2014-1-17,48.7,34.9,21.2,28.6,22.2,14.1,77,61,43,29.93,29.80,20,3,20,0.02
2014-1-18,32.7,24.2,16.9,26.0,12.7,6.5,78,62,47,29.94,29.85,13,0,13,0.02
2014-1-19,43.9,32.4,18.5,27.1,20.0,10.7,74,61,48,29.88,29.74,20,4,22,0.00
2014-1-20,56.8,39.7,29.1,30.4,23.2,17.8,67,53,33,29.86,29.66,15,2,16,0.00
2014-1-21,31.3,25.8,14.9,26.4,20.1,9.4,83,79,67,29.87,29.69,23,3,25,0.00
2014-1-22,23.2,10.8,-2.6,9.4,0.6,-9.8,79,64,46,30.02,29.87,14,1,14,0.02
2014-1-23,21.4,9.6,-3.3,10.9,-2.1,-10.3,74,60,42,30.39,30.01,17,2,19,0.00
2014-1-24,16.5,15.8,15.1,-0.2,-1.0,-2.0,47,47,46,30.14,29.99,18,10,19,0.00
2014-1-25,36.5,25.7,16.5,19.9,9.4,-0.2,70,50,41,29.99,29.44,28,10,28,0.00
2014-1-26,36.0,21.8,7.3,13.2,5.6,-4.9,62,50,37,29.84,29.69,22,2,24,0.00
2014-1-27,48.6,33.0,14.7,32.8,16.0,-3.3,64,50,35,30.15,29.65,23,4,25,0.00
2014-1-28,17.8,12.8,8.2,2.6,-4.2,-8.3,67,46,38,30.34,30.15,14,1,14,0.00
2014-1-29,28.9,13.9,2.5,6.2,0.2,-5.4,71,56,33,30.28,30.13,12,0,12,0.00
2014-1-30,34.3,17.7,1.9,10.1,1.8,-7.1,69,51,34,30.36,30.11,24,4,26,0.00
2014-1-31,53.2,34.5,25.2,21.8,13.3,5.6,60,42,28,30.19,30.06,14,2,15,0.00
2014-2-1,56.3,38.3,23.2,27.1,20.1,13.8,70,50,31,30.23,29.99,18,2,19,0.00
2014-2-2,63.5,46.4,30.0,45.4,32.3,16.6,77,58,43,30.05,29.92,15,1,16,0.02
2014-2-3,44.4,35.9,32.7,37.8,32.0,29.3,88,85,77,30.30,29.98,16,3,17,0.95
2014-2-4,33.6,30.5,28.6,29.7,26.3,23.8,86,84,82,30.40,30.09,0,0,0,0.08
2014-2-5,52.7,36.3,29.8,46.4,29.1,19.3,89,76,55,30.11,29.67,23,4,25,0.20
2014-2-6,38.8,29.5,24.4,23.4,18.4,15.0,70,63,53,30.30,30.11,13,1,13,0.00
2014-2-7,42.8,28.7,17.8,25.4,18.4,11.8,80,66,49,30.30,30.19,14,1,15,0.00
2014-2-8,38.1,29.1,23.2,27.8,20.8,14.0,75,71,65,30.29,30.11,12,0,12,0.00
2014-2-9,37.0,30.5,26.2,29.3,23.4,20.1,78,75,61,30.13,29.91,14,0,15,0.00
2014-2-10,37.4,27.8,18.3,21.0,15.3,7.1,74,60,44,30.27,30.02,10,0,10,0.00
2014-2-11,31.8,20.4,11.1,15.8,9.0,3.4,74,61,47,30.40,30.25,8,0,8,0.00
2014-2-12,25.5,18.3,10.6,13.5,9.1,3.0,80,67,55,30.42,30.08,6,0,6,0.00
2014-2-13,19.2,18.9,18.5,14.9,14.2,13.4,83,82,80,30.08,29.89,18,6,19,0.00
2014-2-14,40.1,37.6,34.5,26.9,22.8,20.5,61,55,49,29.71,29.68,12,1,13,0.00
2014-2-15,37.9,32.4,21.0,29.8,23.0,9.6,84,69,52,29.98,29.59,22,3,24,0.12
2014-2-16,39.0,28.6,19.9,23.0,16.1,9.7,70,60,50,30.18,29.91,48,2,53,0.00
2014-2-17,39.4,27.7,13.8,21.5,14.7,5.3,74,58,45,30.38,30.11,10,2,11,0.00
2014-2-18,57.9,39.6,27.0,29.2,23.2,18.6,78,55,27,30.11,29.99,20,4,20,0.00
2014-2-19,61.0,45.4,30.7,44.9,29.9,19.4,71,56,37,30.13,29.75,26,4,26,0.00
2014-2-20,50.4,41.0,27.5,35.0,27.1,18.9,74,58,43,30.21,29.90,20,4,21,0.00
2014-2-21,60.6,49.8,33.8,53.7,37.1,21.5,86,63,37,30.00,29.67,22,4,24,0.21
2014-2-22,62.2,44.7,32.9,28.7,23.5,18.9,63,45,25,30.11,30.00,21,3,23,0.00
2014-2-23,66.9,49.1,31.1,35.1,28.2,18.1,65,46,27,30.02,29.85,16,4,17,0.00
2014-2-24,43.9,35.6,22.8,30.8,14.8,7.0,65,44,25,30.12,29.93,24,4,25,0.00
2014-2-25,40.8,28.9,21.0,23.3,14.9,7.8,65,56,41,30.09,29.95,24,1,26,0.00
2014-2-26,36.0,28.4,17.2,17.8,11.6,2.7,64,50,35,29.98,29.80,21,2,23,0.00
2014-2-27,39.0,27.1,17.6,9.9,6.2,2.3,56,42,28,30.07,29.66,21,4,22,0.00
2014-2-28,34.2,20.2,8.8,12.3,4.3,-2.6,59,50,39,30.32,30.07,12,1,13,0.00
2014-3-1,49.3,32.9,14.4,26.8,15.9,4.1,68,51,34,30.27,30.12,16,3,17,0.00
2014-3-2,59.7,42.3,33.6,43.0,31.2,21.1,87,66,50,30.13,29.92,19,2,20,0.61
2014-3-3,35.4,17.7,-1.1,31.9,13.1,-6.6,87,82,76,30.32,29.94,12,0,13,0.14
2014-3-4,31.8,12.9,-3.1,18.7,4.9,-8.3,81,71,52,30.35,30.17,9,0,9,0.08
2014-3-5,45.1,26.3,10.8,27.5,16.1,5.0,79,66,45,30.33,30.13,5,0,6,0.00
2014-3-6,35.2,27.0,19.8,20.2,16.0,10.6,71,63,53,30.47,30.28,12,2,12,0.00
2014-3-7,39.0,30.0,24.6,28.4,21.8,17.2,80,71,64,30.29,29.95,13,2,14,0.00
2014-3-8,62.4,41.1,23.5,41.7,29.3,17.7,84,65,40,30.00,29.90,14,1,15,0.00
2014-3-9,54.0,44.6,33.6,34.6,29.0,20.8,70,55,38,30.09,29.94,14,2,15,0.00
2014-3-10,70.0,48.2,30.2,36.8,29.6,21.8,78,52,29,30.00,29.70,23,2,23,0.00
2014-3-11,68.0,55.4,45.5,43.7,36.9,29.7,65,50,38,29.77,29.66,17,2,17,0.00
2014-3-12,45.5,38.9,30.0,34.4,26.8,16.6,72,62,53,29.70,29.40,22,5,22,0.00
2014-3-13,34.0,25.5,18.0,18.1,5.6,-1.5,66,43,31,30.16,29.60,25,5,27,0.00
2014-3-14,60.1,42.2,20.5,29.7,18.9,5.6,54,40,28,30.18,29.91,28,7,28,0.00
2014-3-15,63.0,52.1,37.8,35.2,27.6,20.3,54,40,27,30.07,29.83,20,4,21,0.00
2014-3-16,40.3,33.7,26.2,28.4,23.7,18.5,84,67,50,30.14,30.01,10,1,10,0.00
2014-3-17,30.7,25.7,21.6,23.1,20.2,17.5,85,79,72,30.05,29.94,4,0,4,0.02
2014-3-18,41.9,30.7,24.6,30.5,24.0,20.0,86,76,60,30.19,30.03,9,0,10,0.02
2014-3-19,50.0,39.2,32.5,42.2,33.0,26.0,84,78,74,30.17,29.85,17,2,18,0.00
2014-3-20,55.9,44.5,33.3,37.0,28.6,19.8,87,57,32,30.02,29.86,21,4,22,0.00
2014-3-21,58.8,43.1,30.0,38.1,30.0,20.1,76,61,41,30.05,29.98,9,1,10,0.00
2014-3-22,67.6,49.4,34.0,42.2,29.5,21.9,83,52,22,30.01,29.87,18,2,20,0.00
2014-3-23,45.0,37.8,30.7,30.9,24.7,17.3,74,60,48,30.18,29.99,14,2,15,0.00
2014-3-24,44.1,30.5,19.2,18.6,13.0,7.6,61,49,34,30.27,30.06,14,1,14,0.00
2014-3-25,32.5,29.0,21.0,25.8,19.1,12.8,79,67,50,30.09,29.83,4,0,4,0.12
2014-3-26,36.0,27.3,20.5,21.7,12.6,8.1,82,55,39,30.29,29.91,23,3,26,0.02
2014-3-27,50.2,34.5,17.4,25.5,17.6,8.0,71,52,38,30.35,30.12,25,6,26,0.00
2014-3-28,61.3,51.8,43.7,50.3,40.1,23.9,83,65,42,30.13,30.01,31,8,31,0.06
2014-3-29,54.3,47.9,44.4,46.9,43.0,38.7,90,83,75,30.10,29.63,12,1,13,0.38
2014-3-30,46.0,41.9,35.2,42.7,33.8,24.2,90,74,47,29.94,29.63,26,7,26,0.14
2014-3-31,65.1,49.2,37.2,33.6,27.3,22.1,59,44,29,30.13,29.94,19,6,20,0.00
2014-4-1,74.5,51.1,31.6,44.5,33.5,23.5,76,53,34,30.15,29.94,21,3,23,0.00
2014-4-2,73.6,55.6,39.9,46.7,39.5,31.6,76,57,35,30.11,30.01,10,1,10,0.00
2014-4-3,66.7,56.4,48.9,51.1,46.5,40.1,85,70,54,30.13,29.91,13,1,13,0.04
2014-4-4,70.2,60.1,49.3,54.7,49.2,43.3,82,68,56,29.91,29.67,24,5,26,0.00
2014-4-5,58.8,49.9,34.9,48.7,31.9,22.0,72,51,39,30.16,29.75,16,3,18,0.00
2014-4-6,61.3,43.0,25.7,34.4,26.4,18.6,78,54,34,30.25,30.09,17,1,17,0.00
2014-4-7,48.4,43.6,40.5,42.3,35.8,26.2,88,75,47,30.13,29.61,10,0,11,0.44
2014-4-8,59.5,51.7,38.5,49.0,40.5,30.6,89,67,48,29.75,29.50,24,5,24,0.02
2014-4-9,49.8,39.7,34.7,30.9,29.5,27.6,79,68,46,30.09,29.74,0,0,0,0.00
2014-4-10,69.6,53.0,33.6,39.7,33.8,25.2,74,51,31,30.22,30.02,28,8,28,0.00
2014-4-11,78.6,62.2,45.1,49.4,41.8,31.8,77,49,29,30.11,29.94,24,5,27,0.00
2014-4-12,74.8,60.4,44.4,52.3,47.0,39.6,86,64,44,30.28,30.08,21,2,23,0.02
2014-4-13,81.9,67.4,52.0,55.5,50.4,42.8,76,56,37,30.15,30.00,24,5,24,0.00
2014-4-14,72.3,66.2,61.9,55.4,53.0,50.8,69,62,54,30.01,29.80,33,10,34,0.00
2014-4-15,65.1,52.3,32.5,59.5,45.0,20.2,88,76,60,30.07,29.57,23,5,26,0.65
2014-4-16,49.6,36.3,27.1,27.1,20.8,15.7,65,54,36,30.48,30.07,18,4,19,0.00
2014-4-17,58.8,41.1,24.6,33.4,25.9,17.2,78,57,36,30.58,30.45,17,1,18,0.00
2014-4-18,62.4,45.2,31.1,42.7,33.2,23.3,81,64,45,30.48,30.24,12,1,12,0.00
2014-4-19,63.5,53.3,43.0,42.3,37.9,32.8,71,57,45,30.31,30.22,6,0,6,0.00
2014-4-20,66.4,49.9,36.5,39.0,34.0,28.7,76,57,34,30.41,30.26,8,1,8,0.00
2014-4-21,75.6,52.8,32.4,45.2,35.9,26.0,82,56,29,30.26,29.90,12,1,12,0.00
2014-4-22,71.8,57.6,48.0,50.5,40.6,33.6,65,53,40,29.90,29.65,12,1,13,0.00
2014-4-23,60.6,51.7,39.9,41.6,33.8,26.5,67,51,39,30.04,29.72,23,4,25,0.00
2014-4-24,66.0,48.1,31.8,36.5,29.9,23.0,74,51,31,30.16,30.00,7,0,8,0.00
2014-4-25,64.9,52.2,40.8,54.0,42.7,29.5,85,71,53,30.01,29.72,14,1,15,0.66
2014-4-26,74.8,59.2,39.4,48.4,42.3,32.3,82,56,35,29.94,29.83,22,3,22,0.00
2014-4-27,74.1,56.4,40.8,46.0,40.4,33.8,79,57,35,30.09,29.94,9,0,10,0.00
2014-4-28,58.6,49.3,41.2,45.6,41.0,33.5,85,73,58,30.10,29.96,8,0,9,0.18
2014-4-29,49.6,48.1,46.6,45.6,44.6,43.3,90,88,85,30.16,29.99,5,0,6,0.71
2014-4-30,58.8,50.6,45.5,54.0,47.3,42.7,91,88,83,30.15,29.88,7,0,7,0.26
2014-5-1,74.1,62.0,52.3,58.9,49.7,37.8,91,68,37,29.90,29.76,20,3,21,0.06
2014-5-2,69.8,55.0,39.0,43.6,38.5,32.1,80,56,37,29.91,29.82,15,1,16,0.00
2014-5-3,70.0,60.6,47.5,43.9,40.0,37.3,70,48,37,29.91,29.80,23,2,26,0.00
2014-5-4,74.1,65.2,50.7,45.3,41.8,37.8,61,43,34,29.96,29.82,22,4,23,0.00
2014-5-5,57.9,50.6,39.0,41.9,35.9,28.9,75,57,41,30.07,29.93,11,0,12,0.00
2014-5-6,76.3,59.0,44.4,52.6,46.2,37.0,82,65,40,30.05,29.89,7,0,7,0.00
2014-5-7,74.8,61.0,50.5,55.2,49.2,42.2,79,66,47,30.18,30.05,13,0,13,0.00
2014-5-8,89.4,68.1,46.6,63.0,52.5,41.6,88,61,34,30.16,30.03,17,1,17,0.00
2014-5-9,85.6,70.0,52.9,59.8,54.5,45.5,80,60,37,30.14,29.96,21,2,21,0.00
2014-5-10,76.1,66.9,58.8,62.3,57.8,52.5,84,73,58,30.07,29.96,20,3,21,0.32
2014-5-11,81.7,66.2,51.3,60.4,54.8,47.2,89,69,43,30.19,30.03,9,0,9,0.00
2014-5-12,85.3,69.4,55.2,67.6,59.4,49.8,86,72,50,30.20,30.11,14,1,16,0.04
2014-5-13,90.1,70.7,60.4,70.5,61.8,56.2,89,75,46,30.20,30.09,14,0,15,0.08
2014-5-14,69.6,63.0,59.5,62.1,58.2,55.7,87,84,77,30.19,30.11,0,0,0,0.00
2014-5-15,75.6,65.6,61.5,63.8,60.2,57.9,89,83,66,30.14,29.87,15,1,16,1.32
2014-5-16,69.6,58.0,47.1,59.3,48.8,40.9,89,73,49,30.01,29.86,216,1,193,0.41
2014-5-17,65.1,52.7,39.9,43.7,38.8,35.0,87,62,35,30.20,30.00,12,1,13,0.00
2014-5-18,67.8,52.6,38.5,44.9,38.8,32.1,82,61,42,30.27,30.19,6,0,7,0.00
2014-5-19,72.1,54.6,37.2,46.8,39.4,31.0,85,59,35,30.34,30.20,4,0,4,0.00
2014-5-20,78.6,59.8,43.0,53.9,46.5,36.4,83,64,40,30.25,30.03,12,0,12,0.00
2014-5-21,82.2,68.8,54.3,62.8,56.8,48.6,85,67,50,30.05,29.93,12,0,12,0.00
2014-5-22,84.0,70.3,59.5,65.5,58.2,50.0,87,67,43,29.99,29.89,21,1,23,0.00
2014-5-23,76.8,64.5,48.9,53.3,47.6,41.2,81,56,37,30.11,29.96,14,1,14,0.00
2014-5-24,76.8,60.5,45.0,54.3,46.4,37.8,82,61,43,30.18,30.08,12,1,12,0.00
2014-5-25,81.5,64.3,46.2,56.5,49.6,40.4,86,61,40,30.23,30.12,7,0,7,0.00
2014-5-26,88.2,69.3,50.9,62.4,55.1,45.3,87,63,40,30.20,30.02,10,0,11,0.00
2014-5-27,84.4,70.7,59.9,67.5,60.5,52.0,84,71,52,30.07,29.93,20,1,20,0.47
2014-5-28,87.4,72.4,61.0,69.1,62.0,57.3,89,72,47,30.07,29.95,9,0,10,0.00
2014-5-29,65.5,62.1,59.7,59.1,57.5,55.9,88,85,77,30.16,30.04,0,0,0,0.20
2014-5-30,74.5,63.6,55.2,63.3,57.4,48.8,90,81,63,30.18,30.10,7,0,8,0.02
2014-5-31,79.0,64.0,49.6,59.8,52.2,45.1,89,68,44,30.27,30.17,8,0,8,0.00
2014-6-1,75.9,63.0,49.3,58.6,51.6,43.7,85,68,53,30.35,30.24,6,0,6,0.00
2014-6-2,84.0,69.2,56.3,64.8,56.5,49.0,79,65,49,30.28,30.09,13,1,14,0.00
2014-6-3,84.2,70.0,57.7,69.7,60.8,51.8,86,73,57,30.10,29.93,8,0,9,0.06
2014-6-4,85.8,71.2,60.8,67.2,60.8,56.1,88,72,49,29.96,29.75,15,0,16,0.53
2014-6-5,79.0,68.3,56.5,62.3,57.8,46.6,89,71,46,29.94,29.67,12,1,12,0.00
2014-6-6,81.7,65.3,50.2,58.4,51.9,44.9,86,64,41,30.05,29.93,8,0,8,0.00
2014-6-7,84.4,67.4,50.7,61.2,54.1,45.1,87,65,42,30.10,29.99,7,0,8,0.00
2014-6-8,82.0,69.4,57.4,68.7,60.5,51.9,86,74,62,30.02,29.84,18,1,20,0.33
2014-6-9,84.6,72.3,61.7,68.1,62.2,57.8,89,72,49,29.96,29.88,18,1,19,0.00
2014-6-10,84.6,73.0,63.1,72.2,64.9,58.6,87,76,57,30.00,29.92,0,0,0,0.10
2014-6-11,87.1,72.8,63.1,71.3,65.2,59.5,89,78,59,30.03,29.92,16,0,18,0.16
2014-6-12,79.9,68.7,65.8,68.8,62.3,60.7,85,80,69,29.98,29.86,6,0,6,0.00
2014-6-13,85.6,71.2,63.3,69.5,63.1,58.9,89,77,49,29.94,29.80,12,0,13,0.12
2014-6-14,80.8,67.1,52.9,59.1,54.2,48.3,88,66,43,30.16,29.93,10,0,11,0.00
2014-6-15,85.3,67.2,49.1,65.5,55.8,43.8,87,68,50,30.24,30.11,8,0,9,0.00
2014-6-16,92.3,76.6,62.6,71.7,64.1,57.0,87,68,45,30.20,30.10,16,0,16,0.04
2014-6-17,92.5,78.2,63.7,73.9,66.4,59.3,88,69,48,30.19,30.05,16,1,15,0.02
2014-6-18,94.6,80.1,63.7,72.3,66.1,58.4,86,64,44,30.11,30.03,4,0,4,0.00
2014-6-19,88.3,77.9,68.2,70.3,65.8,60.5,82,67,49,30.10,30.02,0,0,0,0.02
2014-6-20,85.8,73.7,65.5,69.3,65.2,61.5,89,76,57,30.11,29.97,16,0,16,0.39
2014-6-21,82.6,70.6,64.4,73.4,65.2,60.4,90,83,72,29.98,29.89,16,0,15,0.34
2014-6-22,80.4,69.4,62.2,66.7,62.1,59.0,90,79,61,30.05,29.93,0,0,0,0.08
2014-6-23,80.8,70.9,61.3,66.7,62.2,57.1,88,75,60,30.15,30.05,0,0,0,0.00
2014-6-24,86.0,74.4,62.6,71.3,64.4,57.0,85,72,59,30.16,30.02,17,2,19,0.00
2014-6-25,87.4,75.0,67.8,71.7,66.9,62.3,88,77,57,30.05,29.89,17,1,19,1.28
2014-6-26,86.7,73.4,63.3,70.9,64.7,59.3,90,75,55,30.07,29.95,15,0,15,0.00
2014-6-27,88.9,73.7,60.3,69.3,63.2,55.9,89,72,49,30.20,30.07,2,0,2,0.00
2014-6-28,84.6,73.3,65.7,69.5,64.4,57.9,88,75,59,30.29,30.20,12,0,13,0.00
2014-6-29,82.0,72.0,64.6,64.4,60.7,57.9,82,69,52,30.28,30.15,17,1,18,0.00
2014-6-30,87.4,74.8,61.5,72.0,64.3,55.1,84,70,59,30.16,29.98,10,0,11,0.00
2014-7-1,92.3,79.9,67.8,73.5,68.7,62.5,86,70,50,30.03,29.88,18,1,19,0.00
2014-7-2,91.9,77.3,68.7,76.5,68.8,62.6,88,76,49,30.03,29.92,14,0,15,1.08
2014-7-3,87.6,73.0,64.9,75.5,66.9,61.5,91,82,61,30.05,29.97,12,0,12,0.12
2014-7-4,77.9,69.0,55.6,65.6,57.0,47.0,87,68,43,30.27,30.04,0,0,0,0.00
2014-7-5,81.3,64.4,48.2,57.0,50.7,43.3,86,64,39,30.35,30.21,0,0,0,0.00
2014-7-6,86.4,70.5,52.7,64.3,56.8,47.4,85,64,45,30.21,30.00,0,0,0,0.00
2014-7-7,89.4,77.4,63.9,67.7,62.6,56.3,80,62,45,30.02,29.88,0,0,0,0.00
2014-7-8,89.8,73.8,66.4,68.3,63.4,58.9,84,71,47,29.96,29.85,5,0,5,0.00
2014-7-9,84.9,73.3,62.8,71.7,65.2,58.5,89,77,62,30.03,29.91,10,0,10,0.12
2014-7-10,68.5,66.5,63.7,63.2,61.0,59.1,85,83,79,30.18,30.03,0,0,0,0.00
2014-7-11,84.4,69.8,60.6,71.1,63.3,56.9,90,81,61,30.27,30.17,7,0,7,0.00
2014-7-12,88.3,75.1,65.1,72.0,66.4,61.2,89,75,55,30.25,30.14,0,0,0,0.04
2014-7-13,90.5,77.1,66.4,73.4,67.7,61.9,87,74,56,30.15,29.98,12,0,12,0.00
2014-7-14,88.5,78.3,69.8,73.8,68.9,65.6,88,74,58,30.00,29.87,12,1,13,0.00
2014-7-15,82.0,73.4,64.9,71.1,66.6,60.0,87,79,67,29.90,29.80,9,0,9,0.14
2014-7-16,80.4,67.2,55.0,60.4,56.1,51.5,89,70,48,30.03,29.88,7,0,8,0.00
2014-7-17,81.9,67.5,54.7,60.7,54.8,48.3,84,65,47,30.19,30.01,2,0,2,0.00
2014-7-18,79.3,68.3,56.1,66.1,57.6,49.2,83,70,55,30.27,30.18,8,0,8,0.00
2014-7-19,76.3,67.7,62.8,66.4,60.3,58.0,87,78,60,30.25,30.17,9,0,10,0.28
2014-7-20,76.3,68.6,60.4,64.9,61.5,56.6,89,79,66,30.18,30.11,7,0,8,0.50
2014-7-21,85.6,73.6,64.0,71.4,65.6,59.4,88,77,60,30.22,30.13,10,0,11,0.00
2014-7-22,81.3,71.6,68.7,72.0,66.8,64.6,89,85,72,30.23,30.18,12,0,12,0.12
2014-7-25,82.0,71.4,64.2,65.3,60.8,57.6,79,70,57,30.06,30.04,0,0,0,0.12
2014-7-26,88.0,73.9,63.1,69.1,63.6,57.2,88,72,52,30.07,29.93,9,0,10,0.02
2014-7-27,82.0,72.1,65.7,71.0,65.8,61.2,90,81,67,29.98,29.73,13,1,16,1.02
2014-7-28,76.5,69.6,60.3,63.2,58.4,51.9,84,68,53,29.94,29.68,28,2,32,0.00
2014-7-29,75.4,61.9,49.8,57.2,51.4,44.9,87,70,48,30.08,29.93,16,1,22,0.00
2014-7-30,77.5,62.8,48.0,61.7,52.3,43.4,87,70,50,30.13,30.06,193,0,193,0.00
2014-7-31,83.8,68.8,55.2,63.5,58.1,50.8,87,70,48,30.17,30.10,10,0,15,0.00
2014-8-1,76.5,68.1,63.7,65.9,60.7,57.0,86,78,65,30.24,30.16,13,0,18,0.00
2014-8-2,79.2,69.1,60.4,66.0,61.0,55.6,86,76,63,30.19,30.09,10,0,15,0.00
2014-8-3,84.9,70.9,59.7,66.4,61.5,55.5,89,74,50,30.14,30.05,13,0,16,0.02
2014-8-4,86.7,71.1,56.8,67.2,60.8,52.7,88,72,46,30.18,30.09,0,0,0,0.00
2014-8-5,83.8,69.9,58.8,69.3,61.8,54.6,89,76,58,30.14,30.02,0,0,0,0.00
2014-8-6,80.8,68.1,59.5,68.0,61.4,55.3,89,80,65,30.04,29.95,0,0,0,0.10
2014-8-7,82.4,68.9,57.9,65.5,58.8,51.6,89,72,47,30.12,30.01,0,0,0,0.00
2014-8-8,80.2,67.4,56.3,64.1,58.0,50.7,87,73,55,30.18,30.09,12,0,18,0.00
2014-8-9,79.7,69.1,59.5,68.0,60.9,54.9,88,76,61,30.16,30.11,17,0,26,0.00
2014-8-10,77.7,66.7,55.2,66.3,59.2,51.1,89,77,64,30.18,30.11,14,0,16,0.00
2014-8-11,70.9,65.0,61.9,63.2,59.3,56.8,88,82,69,30.16,30.04,0,0,0,0.18
2014-8-12,83.5,67.3,62.1,70.9,62.4,58.1,90,85,66,30.04,29.80,0,0,0,1.12
2014-8-13,77.0,67.0,55.2,64.9,58.4,48.8,90,75,56,30.01,29.84,21,1,29,0.00
2014-8-14,79.9,64.2,51.1,61.8,52.5,47.2,88,68,41,30.02,29.94,25,2,26,0.00
2014-8-15,82.6,63.7,48.2,61.7,52.4,43.8,88,68,46,30.07,29.98,0,0,0,0.00
2014-8-16,84.7,69.5,49.8,62.3,54.4,43.4,79,61,43,30.06,29.98,0,0,0,0.00
2014-8-17,83.8,72.4,63.3,68.1,61.9,54.9,80,70,59,30.02,29.96,0,0,0,0.00
2014-8-18,82.0,71.5,63.1,68.8,63.7,58.3,88,77,62,30.00,29.84,0,0,0,0.00
2014-8-19,85.1,71.9,63.5,71.8,65.3,58.9,89,80,63,29.97,29.86,2,0,2,0.00
2014-8-20,85.8,73.5,64.9,73.2,66.3,61.0,90,79,58,30.07,29.95,32,2,38,0.26
2014-8-21,84.9,72.8,62.6,72.8,65.4,59.2,90,79,63,30.12,30.04,10,0,15,0.00
2014-8-22,83.5,72.4,64.2,73.0,66.4,60.3,89,82,67,30.07,29.98,8,0,9,0.02
2014-8-23,81.1,71.4,65.3,71.7,66.7,62.0,89,85,71,30.11,30.00,25,0,30,0.38
2014-8-24,73.0,67.2,61.5,65.0,62.2,57.0,90,84,75,30.19,30.10,0,0,0,0.00
2014-8-25,82.2,66.3,55.6,65.4,57.6,50.9,90,75,51,30.23,30.15,14,0,15,0.00
2014-8-26,85.5,66.0,50.4,65.0,55.8,46.0,89,72,46,30.24,30.14,18,0,19,0.00
2014-8-27,89.8,70.5,52.9,71.0,60.7,48.5,88,73,53,30.15,29.99,14,0,14,0.00
2014-8-28,70.5,66.4,59.5,64.4,58.7,49.4,84,76,60,30.14,30.00,0,0,0,0.00
2014-8-29,84.4,66.6,52.3,64.8,55.5,47.3,85,69,51,30.23,30.14,18,0,21,0.00
2014-8-30,90.0,75.1,62.4,73.2,65.5,57.2,87,73,56,30.23,30.11,23,2,29,0.00
2014-8-31,89.2,77.0,71.2,71.2,68.2,65.6,86,75,53,30.16,30.05,18,2,23,0.00
2014-9-1,92.1,78.0,68.2,71.7,66.7,63.3,88,70,45,30.10,29.99,14,0,18,0.00
2014-9-2,91.9,77.8,66.7,71.5,65.9,60.2,85,69,45,30.06,29.92,20,2,26,0.12
2014-9-3,86.2,75.6,66.2,69.7,65.8,61.6,87,73,53,30.17,29.98,8,0,11,0.00
2014-9-4,87.8,75.4,64.6,72.6,66.6,60.6,89,75,57,30.20,30.11,18,1,21,0.00
2014-9-5,91.6,76.7,66.0,73.0,67.4,62.0,89,74,52,30.22,30.08,12,0,16,0.00
2014-9-6,89.8,74.7,66.9,72.2,66.5,62.8,89,77,53,30.11,29.96,16,1,19,0.02
2014-9-7,79.9,68.1,57.7,64.4,57.2,49.1,86,69,47,30.22,30.04,12,1,12,0.00
2014-9-8,68.0,61.6,54.3,60.7,55.5,47.3,86,80,74,30.27,30.20,7,0,7,0.16
2014-9-9,76.5,65.8,60.1,65.8,59.7,55.2,86,81,69,30.24,30.13,7,0,8,0.00
2014-9-10,71.4,69.5,63.7,63.0,62.2,58.4,83,78,74,30.14,30.02,12,1,16,0.00
2014-9-11,80.2,71.8,67.8,67.4,63.9,61.4,84,76,65,30.05,29.97,20,3,26,0.00
2014-9-12,77.5,67.1,60.1,61.6,57.3,53.5,83,71,54,30.18,30.05,13,1,17,0.00
2014-9-13,71.8,62.4,51.8,64.0,55.3,45.0,87,78,61,30.28,30.11,12,0,16,0.04
2014-9-14,66.0,55.1,43.5,52.5,46.9,39.6,88,75,59,30.35,30.21,14,1,14,0.00
2014-9-15,78.1,60.3,44.2,59.6,51.0,40.3,89,73,50,30.27,30.04,18,1,23,0.00
2014-9-16,76.1,64.5,53.4,60.0,53.7,45.0,89,70,46,30.09,30.03,14,1,18,0.00
2014-9-17,76.8,60.5,46.2,54.7,49.2,41.7,87,68,45,30.10,29.97,14,1,21,0.00
2014-9-18,76.8,62.7,50.9,59.7,51.6,45.8,87,69,48,30.14,29.98,17,0,17,0.00
2014-9-19,66.7,61.3,57.0,55.4,51.5,47.7,79,70,64,30.29,30.14,13,0,13,0.00
2014-9-20,83.5,67.2,55.8,60.6,55.3,49.3,86,68,45,30.28,30.06,17,1,17,0.00
2014-9-21,87.6,68.9,52.9,65.3,55.8,47.7,89,66,45,30.09,29.72,21,3,22,0.00
2014-9-22,72.1,61.9,48.0,49.1,45.5,37.6,68,56,41,30.27,29.88,20,2,22,0.00
2014-9-23,69.6,52.7,37.8,47.4,39.9,32.1,85,64,42,30.39,30.25,10,0,11,0.00
2014-9-24,66.6,55.7,44.6,53.0,46.7,36.8,82,72,57,30.47,30.38,10,1,13,0.00
2014-9-25,73.4,63.1,57.6,61.2,55.7,51.8,84,77,64,30.39,30.26,12,1,14,0.00
2014-9-26,81.0,65.5,52.5,60.5,55.3,45.5,88,71,47,30.31,30.20,13,1,13,0.00
2014-9-27,83.5,60.6,44.4,60.0,49.3,39.9,88,69,40,30.29,30.19,10,0,11,0.00
2014-9-28,81.7,61.9,44.8,59.0,49.6,39.9,88,67,40,30.25,30.09,12,0,13,0.00
2014-9-29,77.5,64.2,56.3,59.8,54.1,49.8,84,71,52,30.10,29.96,0,0,0,0.00
2014-9-30,84.9,64.3,48.9,63.8,53.4,44.3,88,70,41,29.98,29.86,0,0,0,0.00
2014-10-1,74.1,62.8,56.5,63.0,56.5,50.6,88,80,66,30.10,29.97,0,0,0,0.04
2014-10-2,81.3,66.0,54.0,64.2,57.4,49.9,90,75,50,30.15,30.06,0,0,0,0.00
2014-10-3,78.1,67.3,62.2,62.9,59.2,56.1,88,76,57,30.11,29.73,31,2,31,0.04
2014-10-4,64.0,56.0,36.5,60.4,42.1,25.4,89,62,37,29.86,29.68,22,3,23,0.00
2014-10-5,64.8,46.8,33.3,38.2,31.4,25.2,79,57,34,29.98,29.84,23,1,30,0.00
2014-10-6,74.5,54.1,37.0,51.4,41.4,27.5,82,64,41,30.02,29.90,22,4,28,0.20
2014-10-7,68.2,58.0,52.0,54.6,50.9,46.7,86,78,58,30.07,29.89,23,4,26,0.22
2014-10-8,75.4,60.7,48.4,56.3,48.0,39.1,89,67,35,30.07,29.91,24,2,28,0.00
2014-10-9,72.9,56.4,40.8,49.5,43.2,35.6,86,64,39,30.17,30.07,14,1,18,0.00
2014-10-10,58.8,55.9,53.6,54.3,50.5,45.6,88,82,68,30.14,30.04,0,0,0,0.18
2014-10-11,55.8,53.2,50.7,52.3,49.9,47.6,90,88,87,30.19,29.99,7,0,7,0.18
2014-10-12,55.9,51.4,47.8,50.5,47.4,44.8,90,86,78,30.28,30.18,0,0,0,0.02
2014-10-13,68.2,58.5,51.8,61.8,54.6,48.2,91,87,79,30.27,30.19,20,1,24,0.18
2014-10-14,72.0,67.2,58.8,67.2,63.0,55.3,91,87,78,30.18,29.89,17,2,22,0.36
2014-10-15,70.9,61.5,50.9,64.2,56.7,47.1,89,84,74,29.92,29.79,18,1,20,0.91
2014-10-16,57.4,54.3,51.4,51.3,50.0,48.2,90,85,78,29.82,29.75,0,0,0,0.00
2014-10-17,71.4,58.8,47.1,53.7,49.4,43.4,89,73,52,29.88,29.72,235,3,235,0.00
2014-10-18,62.2,55.5,44.2,50.9,44.5,35.0,82,67,52,29.94,29.69,20,2,20,0.00
2014-10-19,60.6,48.7,37.2,38.6,34.8,29.2,73,60,36,30.13,29.93,13,1,15,0.00
2014-10-20,66.4,50.3,33.6,46.8,38.0,28.1,83,65,40,30.11,29.93,20,2,24,0.00
2014-10-21,55.0,49.7,43.2,46.2,42.8,37.6,84,77,71,29.97,29.88,8,0,8,0.00
2014-10-22,54.7,50.7,48.0,44.8,42.4,40.1,79,73,67,30.08,29.94,22,4,28,0.02
2014-10-23,62.2,51.3,43.3,45.4,40.5,36.8,78,67,52,30.07,29.97,20,3,25,0.00
2014-10-24,69.4,49.0,38.1,47.1,39.1,30.9,86,70,42,30.08,29.96,7,0,8,0.00
2014-10-25,75.0,52.2,32.9,48.7,39.0,27.7,85,64,34,30.03,29.79,16,1,19,0.00
2014-10-26,69.3,56.1,38.8,47.6,31.2,23.7,66,41,19,29.99,29.76,23,3,28,0.00
2014-10-27,78.6,53.7,33.6,42.9,33.9,24.1,73,50,27,30.11,29.98,14,1,17,0.00
2014-10-28,83.3,65.0,50.4,55.9,47.6,39.6,73,55,35,30.09,29.96,22,3,28,0.00
2014-10-29,61.5,53.2,39.7,51.8,46.1,34.6,84,77,65,30.03,29.94,0,0,0,0.02
2014-10-30,52.5,41.1,32.7,42.9,34.0,27.1,88,77,55,30.11,30.01,0,0,0,0.00
2014-10-31,50.9,40.9,30.7,40.1,33.7,25.9,87,76,60,30.05,29.84,0,0,0,0.00
2014-11-1,44.6,41.1,36.1,38.8,36.0,30.6,87,82,71,30.01,29.81,26,4,27,0.00
2014-11-2,47.3,37.6,27.7,30.8,24.6,18.8,72,60,40,30.29,30.01,30,7,30,0.00
2014-11-3,64.0,43.0,25.0,34.8,26.4,18.7,81,55,32,30.36,30.23,13,1,13,0.00
2014-11-4,70.3,56.7,41.2,35.4,31.5,27.3,59,40,24,30.25,30.10,21,3,26,0.00
2014-11-5,63.0,54.7,46.2,45.2,39.0,30.5,77,56,38,30.23,30.10,6,0,1,0.00
2014-11-6,63.1,52.3,43.0,53.7,43.9,33.3,86,74,56,30.10,29.71,29,3,32,0.20
2014-11-7,50.9,43.2,27.7,36.5,30.0,18.8,69,60,46,30.08,29.79,22,3,26,0.00
2014-11-8,49.3,37.9,23.5,33.2,26.8,17.6,81,65,51,30.08,29.89,26,4,27,0.00
2014-11-9,60.6,43.3,32.5,40.1,32.3,26.3,81,66,45,30.04,29.92,9,0,10,0.00
2014-11-10,66.9,46.2,30.0,44.7,34.4,25.2,86,66,40,30.13,30.03,15,1,15,0.00
2014-11-11,72.5,50.8,32.2,46.4,38.1,26.7,85,64,33,30.07,29.91,17,2,22,0.00
2014-11-12,49.6,40.8,30.9,40.6,31.0,23.0,73,68,62,30.13,29.90,8,1,10,0.00
2014-11-13,41.2,36.4,29.8,32.1,28.4,22.2,79,73,63,30.14,30.03,13,0,14,0.00
2014-11-14,34.5,28.4,17.2,22.2,14.7,7.8,67,56,44,30.31,30.08,15,2,17,0.00
2014-11-15,43.0,25.7,13.1,23.3,14.0,6.7,79,62,40,30.41,30.28,10,0,11,0.00
2014-11-16,42.6,37.1,31.3,31.8,22.7,17.6,83,57,43,30.29,29.99,20,4,23,0.12
2014-11-17,50.5,41.1,31.3,45.9,33.9,16.4,88,76,54,29.99,29.55,30,4,34,0.28
2014-11-18,31.1,22.4,13.3,16.4,5.4,0.6,57,48,36,30.22,29.82,29,4,30,0.00
2014-11-19,36.3,24.1,11.1,15.5,9.2,0.9,69,53,39,30.28,30.00,29,5,30,0.00
2014-11-20,36.1,32.3,28.9,14.7,13.3,9.5,53,45,39,30.10,29.98,14,1,18,0.00
2014-11-21,39.4,27.4,18.0,12.6,8.5,4.8,61,45,33,30.48,30.10,21,2,26,0.00
2014-11-22,55.2,35.3,18.1,25.7,16.3,6.7,63,47,31,30.47,30.22,24,3,24,0.00
2014-11-23,57.9,45.1,31.3,45.0,31.9,17.3,84,61,46,30.22,29.70,21,2,26,0.27
2014-11-24,68.9,58.4,48.6,53.3,50.0,44.3,89,75,55,29.84,29.62,37,9,38,0.04
2014-11-25,58.1,46.2,35.4,45.2,34.0,24.3,78,64,38,30.14,29.84,11,0,12,0.00
2014-11-26,39.4,34.6,30.7,32.6,29.3,27.2,87,81,73,30.13,29.96,8,0,10,0.22
2014-11-27,40.1,32.1,27.7,36.5,27.1,20.7,89,82,68,30.20,29.98,17,0,19,0.18
2014-11-28,36.0,27.7,22.1,20.9,17.7,13.8,79,66,51,30.31,30.19,17,1,20,0.00
2014-11-29,39.0,32.5,23.5,28.2,23.3,17.4,79,69,57,30.24,30.10,21,2,23,0.04
2014-11-30,63.3,47.0,28.2,46.9,36.3,21.3,82,67,54,30.16,30.05,25,4,27,0.00
2014-12-1,69.6,54.7,38.3,53.8,45.1,33.3,82,71,56,30.45,30.15,22,4,23,0.12
2014-12-2,38.3,35.3,32.7,33.8,31.3,28.4,88,85,81,30.52,30.25,20,2,20,0.26
2014-12-3,61.9,45.0,32.2,53.1,37.9,23.5,90,77,54,30.29,30.03,24,4,28,0.00
2014-12-4,42.6,35.7,29.3,31.3,27.5,23.3,81,72,60,30.43,30.29,4,0,4,0.06
2014-12-5,40.8,37.7,34.2,36.1,33.3,29.1,87,84,81,30.45,30.27,20,4,24,0.10
2014-12-6,51.6,46.2,40.8,48.2,42.6,36.2,89,87,83,30.28,30.00,28,5,28,0.63
2014-12-7,44.8,35.4,26.4,37.0,25.9,17.9,86,69,48,30.52,30.28,24,4,25,0.00
2014-12-8,33.3,28.6,23.4,24.7,20.7,15.8,84,72,66,30.52,30.22,10,0,11,0.00
2014-12-9,41.2,32.8,28.9,37.6,29.4,24.7,89,87,85,30.22,29.93,0,0,0,0.22
2014-12-10,43.2,36.7,29.5,34.1,28.1,19.7,89,71,58,29.95,29.89,23,3,24,0.00
2014-12-11,36.5,29.5,22.8,20.0,14.4,10.4,75,55,35,30.05,29.91,15,2,16,0.00
2014-12-12,52.7,37.1,28.6,24.9,19.5,11.2,62,49,33,30.11,30.03,13,0,14,0.00
2014-12-13,52.9,35.2,24.4,32.2,22.9,17.6,78,62,40,30.11,30.00,2,0,2,0.00
2014-12-14,55.4,37.1,23.7,38.7,27.6,17.7,83,69,52,30.07,29.98,16,2,21,0.00
2014-12-15,55.6,39.0,27.5,42.5,31.6,23.3,87,75,58,30.12,30.01,17,1,18,0.00
2014-12-16,55.8,42.7,34.2,46.1,36.8,28.8,87,80,69,30.02,29.81,20,1,20,0.06
2014-12-17,51.4,40.2,25.5,36.9,28.5,17.3,84,65,38,30.07,29.93,15,2,19,0.00
2014-12-18,38.8,30.7,21.2,25.0,21.0,14.7,79,67,57,30.17,30.05,9,0,11,0.00
2014-12-19,38.1,29.5,20.8,26.0,20.7,14.6,80,70,59,30.24,30.08,17,2,19,0.00
2014-12-20,34.5,27.5,19.2,25.4,20.6,13.5,82,75,69,30.27,30.18,0,0,0,0.00
2014-12-21,45.1,32.2,22.8,31.9,24.1,17.3,79,72,58,30.31,30.20,5,0,6,0.00
2014-12-22,31.6,29.8,23.5,27.8,25.4,18.0,88,84,79,30.26,30.08,0,0,0,0.14
2014-12-23,41.5,35.9,30.9,38.3,32.9,27.8,89,88,88,30.09,30.00,0,0,0,0.25
2014-12-24,56.8,46.3,38.3,53.5,43.4,35.3,91,90,84,30.00,29.56,24,2,28,0.24
2014-12-25,56.3,42.8,26.6,51.5,31.6,21.1,84,65,49,30.23,29.63,23,3,24,0.00
2014-12-26,55.6,36.0,23.5,38.2,27.7,19.4,86,73,49,30.32,30.20,12,0,15,0.00
2014-12-27,63.0,44.9,31.6,36.5,30.1,24.8,80,59,34,30.29,30.04,16,1,17,0.00
2014-12-28,56.1,48.1,41.7,45.2,38.6,29.7,86,70,48,30.08,29.93,10,0,13,0.02
2014-12-29,45.0,37.9,34.3,40.7,32.0,26.2,85,79,72,30.24,30.07,12,1,14,0.00
2014-12-30,40.8,31.0,19.4,26.2,19.3,11.5,72,63,43,30.39,30.23,13,1,13,0.00
2014-12-31,39.6,25.3,18.0,18.0,11.9,7.6,76,59,34,30.40,30.20,14,0,16,0.00
2015-1-1,48.2,32.5,19.0,25.6,17.3,7.6,67,54,39,30.20,30.03,31,5,32,0.00
2015-1-2,45.1,33.6,25.9,27.7,21.3,15.7,75,61,49,30.38,30.09,16,0,21,0.00